Location: Maiden
(35.5760°N, 81.2120°W)
Time: 02:13:43
(UTC-04:00)

A-11 Canister half - Pass Details

Date: 10 August 2020
Orbit: 1527 x 1682 km, 47.3° (Epoch: 25 September)

Event Time Altitude Azimuth Distance (km) Brightness Sun altitude
Rises 10:35:46 0° 191° (S) 4,850 11.7 46.2°
Reaches altitude 10° 10:39:31 10° 179° (S) 3,886 11.4 46.9°
Maximum altitude 10:47:24 27° 126° (SE) 2,794 11.8 48.5°
Drops below altitude 10° 10:55:22 10° 74° (ENE) 3,945 11.8 50.0°
Sets 10:59:10 0° 63° (ENE) 4,936 12.0 50.7°
